Location: Most
(50.5133°N, 13.6207°E)
Time: 13:29:19
(UTC+01:00)

ISS - Visible Passes

Search period start: 23 March 2017 00:00
Search period end: 02 April 2017 01:00
Orbit: 399 x 409 km, 51.6° (Epoch: 23 March)

Date Brightness Start Highest point End Pass type
(mag) Time Alt. Az. Time Alt. Az. Time Alt. Az.
23 Mar -1.7 04:30:03 14° S 04:30:03 14° S 04:31:02 10° S visible
28 Mar -2.6 20:59:26 10° SSW 21:01:53 25° SSE 21:01:53 25° SSE visible
29 Mar -2.0 20:07:53 10° S 20:10:00 16° SE 20:12:07 10° E visible
29 Mar -2.9 21:42:46 10° WSW 21:45:02 40° SW 21:45:02 40° SW visible
30 Mar -3.4 20:50:32 10° SW 20:53:39 43° SSE 20:55:14 24° E visible
30 Mar -1.4 22:26:46 10° W 22:27:55 20° W 22:27:55 20° W visible
31 Mar -3.9 21:34:19 10° WSW 21:37:36 88° N 21:37:56 70° ENE visible
01 Apr -3.9 20:41:55 10° WSW 20:45:10 71° SSE 20:47:49 15° ENE visible
01 Apr -2.3 22:18:26 10° W 22:20:28 34° WNW 22:20:28 34° WNW visible
